Regional Weather Roundup
Issued by NWS

Home | Current Version | Previous Version | Text Only | Print | Product List | Glossary Off
Versions: 1 2 3 4 5 6 7 8 9 10 11 12 13 14 15 16 17 18 19 20 21 22 23 24 25 26 27 28 29 30 31 32 33 34 35 36 37 38 39 40 41 42 43 44 45 46 47 48 49 50

421
ASUS43 KFSD 241910
RWRSD

WEATHER ROUNDUP FOR SOUTH DAKOTA
NATIONAL WEATHER SERVICE SIOUX FALLS SD
200 PM CDT SUN JUL 24 2016

NOTE: "FAIR" INDICATES FEW OR NO CLOUDS BELOW 12,000 FEET WITH NO
SIGNIFICANT WEATHER AND/OR OBSTRUCTIONS TO VISIBILITY.


SDZ001>005-009-010-012>017-242000-
NORTHWEST AND NORTH CENTRAL SOUTH DAKOTA

CITY           SKY/WX    TMP DP  RH WIND       PRES   REMARKS
BUFFALO          N/A     85  43  22 W7        30.05F
FAITH            N/A     81  44  27 W9        30.11F
MOBRIDGE       SUNNY     84  55  36 W9G18     30.04F
$$

SDZ012>016-024>037-041>051-057-063-072>074-242000-
SOUTHWEST AND SOUTH CENTRAL SOUTH DAKOTA

CITY           SKY/WX    TMP DP  RH WIND       PRES   REMARKS
RAPID CTY ARPT PTSUNNY   83  49  30 SE9       30.13F
PIERRE         CLOUDY    82  52  35 NW9       30.07F
CUSTER         CLOUDY    73  42  32 E7        30.26F
ELLSWORTH AFB  MOSUNNY   82  47  30 S7        30.12
PHILIP         CLOUDY    82  53  36 CALM      30.09F
PINE RIDGE     SUNNY     85  44  23 NE9G18    30.15F
WINNER         FAIR      82  54  37 NW5       30.11S
$$

SDZ004>011-016>023-039-040-242000-
NORTHEAST SOUTH DAKOTA

CITY           SKY/WX    TMP DP  RH WIND       PRES   REMARKS
ABERDEEN       CLOUDY    83  58  42 NW14      30.02R
WATERTOWN      CLOUDY    78  57  48 NW16      30.03R
BROOKINGS      LGT RAIN  73  63  70 W8        30.06R
SISSETON         N/A     82  58  43 NW18      29.96R
$$

SDZ017-020-022-023-036>040-048>070-242000-
SOUTHEAST SOUTH DAKOTA

CITY           SKY/WX    TMP DP  RH WIND       PRES   REMARKS
SIOUX FALLS    CLOUDY    76  61  59 W7        30.07R
HURON          PTSUNNY   74  60  61 W6        30.05F
CHAMBERLAIN    CLOUDY    78  60  52 NW7       30.10S
MITCHELL       CLOUDY    74  63  68 W3        30.09R
YANKTON        CLOUDY    77  57  50 NW17      30.03F
$$

ABBREVIATIONS USED IN REMARKS
   TC - TEMPERATURE IN CELSIUS
  WCI - WIND CHILL INDEX
   HX - HEAT INDEX
  VSB - VISIBILITY





USA.gov is the U.S. government's official web portal to all federal, state and local government web resources and services.